Theta_e
306 307 308 309 312 311 311 311 312 312 312 312 312 312 311 310 308 297 293 298 296 292 294 298 299 293 294 293 290 294 294 295 292 289 288 288 287 289 288 290 288 288 286 286 286 283 283 299 300 294 298 302 301 298
305 306 308 307 311 311 311 311 311 311 311 312 312 312 311 310 309 301 296 300 300 295 295 298 298 299 298 298 294 293 293 294 294 291 290 289 288 288 287 285 293 287 290 287 290 289 296 297 297 300 300 298 299 299
305 307 307 307 311 310 310 310 311 311 311 311 312 312 311 310 309 302 297 297 296 293 293 293 294 297 299 300 299 293 294 296 294 296 292 290 288 290 286 287 288 292 292 288 289 291 294 296 297 298 297 297 300 301
305 305 305 305 308 310 310 310 311 311 311 311 311 311 311 310 308 303 298 299 297 292 288 291 299 297 300 299 300 299 297 295 295 294 291 289 288 291 287 289 287 292 290 288 288 292 293 294 296 296 297 298 299 300
304 305 305 305 306 310 310 310 310 310 311 311 311 311 310 309 307 301 299 300 298 294 288 291 294 295 296 298 297 295 294 291 290 290 288 288 289 288 286 287 285 291 289 286 287 292 290 292 296 297 297 297 298 298
304 305 305 305 305 310 309 310 310 310 311 312 312 311 309 308 306 298 293 297 298 297 292 287 293 293 294 296 295 294 293 290 289 287 286 287 289 287 283 281 288 290 292 291 289 294 294 296 297 297 297 298 299 298
304 305 305 305 305 309 309 310 310 310 311 311 310 309 308 306 300 296 292 296 301 297 291 286 287 293 295 293 292 292 292 290 289 287 286 286 286 287 283 281 288 291 293 293 294 293 292 295 294 297 297 298 300 299
304 305 305 305 306 309 309 310 310 310 310 309 307 306 306 305 303 298 299 303 301 295 292 286 286 289 293 289 288 290 288 288 288 287 287 286 286 286 283 288 291 293 294 294 295 295 294 296 297 297 299 299 298 299
304 305 305 306 305 309 309 310 310 309 307 306 306 307 303 301 296 297 306 304 301 295 285 286 285 283 292 289 289 289 288 285 288 285 285 286 283 282 287 288 290 292 292 293 295 296 299 297 297 299 299 298 297 298
304 305 305 305 306 309 309 309 309 306 305 306 302 296 291 297 306 305 298 292 292 291 289 285 288 288 290 288 286 287 287 284 282 285 288 284 283 289 291 294 294 295 295 297 298 298 300 300 301 301 301 303 303 303
305 305 305 306 309 309 309 306 305 305 304 298 293 292 298 307 298 295 289 286 286 285 286 286 287 288 292 287 286 287 282 284 281 284 285 284 282 293 299 299 301 302 302 302 302 302 302 301 301 301 301 303 303 303
305 305 307 308 309 307 305 305 304 300 298 299 299 301 298 295 292 288 284 286 285 284 286 285 286 289 290 292 288 288 284 284 282 288 284 282 288 295 297 299 301 302 302 302 303 302 303 303 304 303 303 303 305 306
305 307 308 307 306 305 304 305 304 304 303 300 296 292 290 290 283 281 280 281 282 286 287 286 285 287 287 288 286 287 284 282 288 283 283 286 292 295 296 299 301 302 302 302 302 304 305 305 306 306 305 307 307 306
305 307 306 305 305 305 305 305 305 303 299 292 288 283 284 284 283 283 283 284 287 288 288 288 285 285 285 284 284 283 285 285 281 280 282 288 291 296 298 300 300 300 301 301 303 305 305 305 304 303 303 302 302 301
306 305 305 304 305 305 305 305 304 301 296 289 290 282 284 287 287 287 288 287 289 291 290 288 287 287 285 286 286 284 283 281 282 284 287 291 294 296 297 299 299 300 301 302 304 305 305 304 302 300 301 301 301 301
304 303 302 304 304 304 305 304 301 299 295 292 290 286 287 284 284 287 288 290 293 292 290 289 285 283 283 285 284 284 282 282 284 288 291 292 294 295 296 299 300 301 301 303 304 304 304 303 300 300 300 300 300 304
301 298 303 303 304 304 304 299 297 293 291 291 287 289 289 288 288 289 293 292 293 290 285 284 283 283 286 283 283 286 284 286 288 290 292 293 293 295 298 299 301 302 303 305 304 305 303 303 302 299 298 299 300 301
298 301 303 303 302 301 298 297 293 291 288 287 286 287 290 292 292 293 293 292 291 288 287 285 287 283 281 282 283 287 289 290 291 291 292 294 296 297 299 298 301 303 304 305 304 304 303 301 299 298 299 299 299 299
300 301 303 302 300 296 292 292 293 287 289 290 290 290 292 293 294 295 294 293 292 291 290 287 284 280 282 286 287 287 288 289 290 291 293 295 296 298 300 300 302 304 305 304 304 303 302 302 300 299 300 299 297 298
302 302 302 303 302 295 291 290 295 291 288 290 291 291 291 292 293 293 293 292 290 288 286 283 284 285 286 288 290 290 290 291 291 289 291 295 297 298 300 300 301 304 305 305 303 299 303 301 300 300 299 298 297 297
298 298 301 300 297 296 293 291 290 290 290 288 289 289 289 291 290 289 290 290 288 285 281 286 286 289 291 291 291 291 291 290 289 290 291 292 297 299 301 303 306 305 304 304 302 302 300 299 299 300 299 297 298 298
294 301 296 298 291 292 290 292 289 289 288 287 287 287 284 283 284 286 288 286 284 283 286 287 288 289 290 291 291 291 292 292 292 292 294 297 298 301 302 304 305 304 304 303 303 302 303 301 300 299 298 297 296 296
298 296 292 291 287 286 286 292 287 287 283 284 286 282 283 284 286 288 284 285 286 288 289 289 290 291 290 291 292 292 293 293 292 295 299 301 302 301 303 305 307 305 303 303 305 303 302 296 297 299 299 297 296 295
297 290 287 284 286 282 288 284 287 289 288 286 286 285 286 287 288 286 283 284 288 289 290 292 295 294 294 295 294 295 294 294 296 299 302 301 299 301 303 304 307 307 306 306 305 304 302 300 296 298 298 297 296 296
284 286 285 284 288 285 286 286 286 287 285 288 288 289 289 290 285 286 287 287 289 291 293 294 294 294 293 294 296 298 299 298 297 298 302 302 301 302 304 305 307 308 308 305 303 302 301 301 300 300 299 298 297 296
282 287 286 287 284 286 287 285 286 285 286 286 286 287 288 287 286 286 287 289 291 291 291 291 291 292 295 296 294 295 297 300 300 299 301 301 300 300 301 303 303 306 309 307 304 302 301 301 300 299 296 294 290 296
280 285 289 293 290 288 287 286 286 283 284 283 282 284 284 284 284 286 290 291 290 291 293 293 293 290 290 292 294 296 298 299 299 299 300 300 303 305 303 303 303 305 310 308 305 304 302 301 300 299 298 297 296 296
287 289 285 286 287 289 287 286 285 284 284 286 286 283 282 283 283 287 287 291 291 292 293 293 294 294 293 291 293 294 294 296 298 300 301 303 305 307 305 302 299 289 305 306 306 305 304 303 301 299 298 296 296 297
288 290 290 288 288 288 287 286 286 288 289 287 285 283 285 286 288 287 289 291 293 293 292 292 294 296 295 292 292 292 294 294 295 295 296 296 298 301 305 303 302 302 300 298 288 297 302 302 301 300 300 298 298 298
290 292 287 288 285 284 287 291 289 292 292 291 291 288 287 289 291 293 292 292 291 291 292 294 295 296 296 292 291 292 294 295 296 295 295 295 298 302 303 302 300 299 299 298 297 296 290 299 296 301 299 299 298 296
293 290 289 289 286 287 289 290 292 294 294 292 292 290 288 289 292 294 293 293 293 293 292 293 294 296 296 295 291 291 291 295 295 297 298 298 300 301 304 302 300 300 299 299 299 300 300 301 300 299 298 298 297 296
292 292 291 289 287 291 292 292 292 291 290 287 289 292 290 289 286 290 293 293 292 291 290 291 292 293 295 295 297 295 291 299 298 298 299 299 299 302 304 304 300 300 298 298 297 299 300 300 299 299 298 299 298 297
293 294 293 292 289 290 293 292 290 289 289 288 286 286 288 288 285 290 295 295 293 292 292 293 294 295 296 297 295 295 294 301 293 286 288 287 287 291 301 303 300 299 298 297 297 299 299 299 299 299 299 299 298 295
Wind_Speed
22 17 16 16 30 31 30 29 28 27 27 25 24 22 21 19 17 5 3 4 4 3 3 3 2 3 2 3 4 3 4 4 4 4 3 3 3 4 2 3 3 3 3 4 2 2 5 7 5 3 4 6 3 4
23 21 19 13 29 30 30 30 29 27 27 26 24 23 21 19 17 7 1 1 2 5 4 2 3 1 2 5 6 4 3 1 2 5 0 2 1 1 2 4 3 3 5 2 5 5 4 4 5 2 1 3 5 5
26 19 16 16 27 30 31 30 29 28 27 26 25 24 21 19 16 7 3 1 4 3 3 3 3 1 3 3 3 5 2 3 2 3 4 2 3 4 3 5 3 2 3 2 3 4 5 3 3 2 3 5 9 9
25 23 18 15 14 31 30 31 30 29 28 27 26 24 21 18 16 6 3 1 4 4 4 4 3 3 4 3 5 4 6 4 5 3 2 2 2 3 3 4 4 3 2 3 6 9 8 5 5 4 6 6 8 9
24 23 23 18 12 30 30 31 31 30 29 28 27 24 21 18 16 4 2 0 2 5 5 2 3 3 2 6 8 6 6 4 2 2 2 3 2 2 1 2 4 5 5 2 9 10 6 8 8 7 14 14 13 14
23 24 21 20 15 27 31 31 31 31 30 30 28 25 21 18 14 2 3 3 0 3 5 2 3 2 3 5 7 5 4 3 3 4 3 3 3 3 1 4 6 5 4 5 6 5 6 16 13 11 14 16 16 12
22 22 21 19 17 27 31 32 33 32 31 30 28 24 20 16 4 3 5 3 1 2 5 2 2 3 3 4 3 3 3 2 3 2 1 1 2 3 2 3 9 8 8 10 10 6 8 8 9 9 9 15 14 12
21 22 21 19 14 28 31 33 34 34 33 32 29 24 17 12 7 5 3 3 2 5 3 4 1 2 1 1 1 1 2 2 2 2 1 1 2 2 4 10 9 6 8 10 11 7 9 12 12 14 14 13 12 12
24 22 23 20 12 22 31 34 35 34 36 34 31 22 8 6 3 2 1 7 4 4 4 2 5 5 1 1 1 3 2 1 1 1 2 4 1 4 8 8 10 11 6 12 14 12 12 10 12 11 9 9 8 11
24 23 21 21 14 27 32 35 36 41 41 36 14 5 3 3 6 5 7 4 4 3 3 2 1 3 5 1 1 2 2 2 1 5 3 3 4 6 7 9 9 10 9 8 6 9 10 14 13 13 15 13 11 12
23 22 20 14 30 32 36 43 44 43 30 4 4 3 3 16 3 2 3 3 2 1 3 4 5 4 1 4 3 2 3 1 0 4 4 3 3 4 7 9 9 8 7 9 8 11 12 13 14 14 16 14 13 14
23 21 21 25 32 43 45 46 42 9 4 8 11 10 5 3 2 4 4 3 4 7 4 5 5 5 2 4 4 1 3 3 4 2 2 2 4 5 6 9 10 10 11 14 14 16 17 17 16 16 16 17 16 15
23 18 28 35 44 46 46 33 23 25 28 10 7 4 4 3 4 9 9 5 4 5 5 4 4 5 2 3 3 3 3 5 1 0 3 4 3 6 7 7 11 12 13 14 16 15 16 16 17 17 17 16 17 17
14 32 42 45 44 41 31 32 34 16 6 5 5 7 5 6 6 6 5 5 5 5 8 6 4 4 1 3 3 3 4 3 1 2 4 3 5 7 8 9 10 14 14 14 17 17 16 15 11 10 10 12 14 15
38 42 42 40 36 36 37 27 11 3 4 5 4 5 6 4 3 4 3 3 2 7 7 5 4 4 3 4 0 2 2 4 4 3 3 4 6 7 8 9 11 12 13 13 15 14 14 11 10 11 13 16 17 19
43 39 28 39 38 35 27 12 2 1 2 4 4 3 1 4 1 3 3 3 2 4 4 5 4 4 1 4 3 6 3 4 3 3 4 4 6 7 7 9 11 10 12 12 14 15 9 9 9 12 14 16 19 17
28 10 38 40 33 25 13 3 2 3 1 1 1 2 3 5 4 2 4 3 2 5 4 4 4 5 3 3 2 2 4 3 3 4 3 4 6 9 9 9 10 11 12 12 13 11 8 8 8 11 14 16 16 15
24 26 33 26 15 9 2 2 3 2 2 3 5 3 3 2 4 4 2 3 5 4 4 3 5 3 4 4 2 3 3 2 3 4 4 6 6 8 7 8 10 11 11 10 11 7 7 9 8 8 11 12 12 12
19 16 22 16 5 4 4 4 3 4 4 3 3 3 4 4 4 4 4 5 4 3 5 3 4 3 3 3 4 2 1 2 3 3 4 6 6 7 10 10 11 11 11 7 6 4 5 8 7 8 7 8 9 9
18 14 10 5 7 3 5 3 3 5 4 3 4 4 4 3 2 3 5 5 4 4 3 2 3 3 4 3 3 3 3 2 1 4 5 5 5 7 9 9 8 10 8 6 4 4 5 6 6 7 8 8 9 11
16 8 9 4 4 5 5 3 4 2 2 4 3 4 3 3 4 4 4 3 4 2 1 1 1 1 1 2 2 2 1 0 1 3 4 6 8 7 8 7 7 6 5 4 3 3 7 5 5 6 8 8 9 11
2 8 4 6 6 6 5 5 4 1 4 2 4 3 3 3 2 2 2 4 1 3 3 3 2 0 2 2 2 2 5 4 6 5 4 6 4 5 8 9 6 4 2 2 1 4 5 3 2 4 4 3 3 3
6 6 5 5 7 6 2 4 5 4 5 2 2 3 3 2 0 1 3 1 3 2 2 3 3 3 2 2 3 5 5 5 4 4 5 5 4 4 7 7 4 3 3 2 2 3 4 4 3 2 2 4 4 4
6 6 6 5 5 2 2 4 3 3 2 2 2 3 3 3 1 2 1 2 2 1 2 2 1 0 1 2 2 3 4 2 3 4 3 4 4 4 6 5 3 2 3 3 3 4 4 4 5 3 3 4 4 4
8 6 5 5 2 3 3 2 3 2 3 3 4 3 3 3 2 3 3 2 1 2 2 3 3 2 1 2 3 3 4 4 3 3 3 2 4 4 6 3 2 2 2 4 4 5 4 4 4 4 3 3 5 6
7 3 3 3 1 2 2 2 3 3 3 4 1 2 3 4 4 2 1 2 2 2 2 2 2 3 2 2 3 4 5 4 4 4 5 4 5 4 5 3 3 2 3 3 5 6 5 4 5 7 6 6 6 9
5 4 2 1 3 3 3 3 3 4 4 2 2 2 2 2 2 1 1 2 1 1 2 2 2 3 4 4 4 4 4 5 4 6 9 6 5 2 2 3 3 2 3 4 4 5 8 6 9 7 6 5 4 7
3 2 4 2 4 3 4 3 2 2 2 1 2 2 2 2 1 1 1 1 2 3 3 3 4 6 7 5 4 4 5 4 7 8 3 1 3 4 4 3 3 5 4 4 5 5 4 6 9 7 6 6 5 4
3 3 4 5 4 4 3 2 2 1 2 1 1 1 1 0 1 1 1 2 3 3 4 5 4 3 4 3 4 4 3 3 5 5 5 4 4 4 4 3 3 4 4 5 6 6 8 7 7 7 8 8 5 5
3 4 3 4 4 3 0 1 2 2 1 2 3 2 2 1 1 2 2 2 2 3 3 4 4 4 4 3 3 3 2 4 4 3 2 3 4 6 3 3 3 4 4 5 5 6 8 9 6 5 7 7 6 6
2 3 4 4 3 1 2 1 2 1 3 2 1 2 2 2 1 2 2 2 3 3 3 3 3 3 4 3 2 1 3 3 4 6 5 3 3 4 2 3 4 4 4 5 4 5 7 7 6 6 7 9 9 8
1 3 4 4 3 3 3 1 2 2 2 2 3 1 2 1 2 1 2 2 2 3 3 3 4 3 2 3 2 3 5 4 4 4 5 1 1 3 1 4 4 4 5 5 4 5 8 9 8 8 5 6 7 6
3 3 3 4 3 4 2 2 2 2 1 1 1 2 1 2 2 2 2 3 4 5 5 5 5 5 6 6 5 4 5 4 3 1 4 3 3 2 1 5 5 6 6 5 5 7 9 11 10 10 7 6 6 7
Wind_Direction
207 213 217 239 184 181 181 181 180 179 173 177 171 172 169 169 167 141 240 189 125 112 298 9 26 89 64 68 126 272 41 348 48 79 123 212 184 247 338 267 279 210 186 225 110 201 284 327 28 49 283 339 335 314
208 213 211 221 188 179 178 177 177 176 172 170 169 168 168 167 167 142 122 291 125 94 182 310 284 285 143 174 130 20 157 93 160 91 126 106 243 6 172 272 328 266 187 208 166 224 218 3 116 210 303 278 269 246
201 200 188 208 195 177 175 174 173 172 169 167 165 164 166 164 163 152 155 166 63 78 1 34 290 263 88 132 154 117 302 163 67 174 160 174 218 131 206 244 277 263 76 158 29 284 214 200 240 80 336 303 299 288
204 200 212 226 217 174 173 171 169 168 167 163 160 161 160 158 159 140 127 169 93 107 111 276 345 105 134 113 83 89 127 54 101 74 102 138 180 155 218 245 225 211 12 197 253 277 299 266 234 250 320 274 274 282
199 192 205 212 243 172 170 169 165 165 165 160 157 156 156 155 154 124 97 140 142 127 155 241 318 19 115 112 100 81 92 91 72 54 89 226 231 112 316 335 251 180 222 233 270 285 215 253 272 283 289 275 268 272
196 191 195 202 218 177 168 165 161 161 161 156 152 150 150 148 149 110 66 329 30 107 96 103 296 187 105 104 108 104 113 98 95 136 217 268 268 105 228 258 262 254 257 231 249 250 254 281 273 258 268 277 281 276
187 184 185 195 213 176 165 161 157 156 153 149 142 140 137 129 93 98 171 202 26 94 80 57 1 331 119 83 37 67 42 108 115 130 236 237 322 91 121 252 257 253 260 273 263 284 291 268 263 276 272 275 276 265
183 174 177 177 212 167 162 157 154 149 143 135 125 114 99 105 100 40 348 36 83 85 75 117 225 67 148 79 40 11 85 31 8 172 38 165 356 56 257 252 281 276 292 289 280 260 244 276 290 285 281 281 280 274
180 169 168 174 183 168 156 151 146 138 127 120 111 99 59 33 55 262 345 69 58 101 138 121 143 208 54 94 106 28 76 55 284 161 254 102 309 226 236 283 295 295 249 283 298 297 291 283 277 279 279 283 268 279
171 164 161 166 199 162 151 143 134 126 121 119 106 78 133 190 177 108 7 36 19 351 47 184 150 176 114 108 6 89 30 173 187 246 111 141 252 261 275 276 271 286 287 301 298 302 294 293 293 292 289 283 269 274
163 157 158 180 154 148 137 128 126 124 122 69 115 113 129 137 86 105 138 159 178 209 194 217 178 143 245 120 165 173 179 178 19 263 151 203 268 258 298 312 312 307 294 286 259 273 279 273 281 289 292 283 275 271
159 157 160 154 141 132 131 130 132 107 109 138 110 104 114 93 141 151 185 154 189 209 186 154 186 175 173 120 107 207 143 59 248 169 173 258 246 254 288 303 305 305 305 309 311 306 304 298 292 291 287 282 277 274
155 155 148 137 133 132 132 128 105 121 119 98 72 110 148 158 161 180 180 207 194 177 165 157 135 141 66 62 76 113 138 224 35 31 233 216 246 295 290 302 315 317 316 313 308 305 301 299 298 292 288 282 281 276
163 137 132 132 131 127 121 123 129 114 76 88 121 143 191 177 209 190 176 173 211 130 136 131 104 127 144 83 136 148 221 115 249 231 246 257 270 304 323 317 315 310 311 309 310 309 301 305 313 310 304 293 287 276
133 128 126 124 118 119 124 118 98 71 113 110 137 178 199 195 175 175 176 116 100 131 118 91 56 88 39 107 118 86 186 230 205 206 237 269 304 303 299 302 304 310 315 311 314 316 308 319 320 313 313 305 296 278
119 116 119 115 118 124 135 135 52 169 62 133 168 142 192 101 129 107 141 106 135 115 85 57 91 76 158 137 130 210 195 216 221 217 247 300 296 299 290 298 301 303 305 301 314 314 331 337 335 326 329 329 325 337
94 93 116 120 132 142 151 140 97 60 181 187 81 86 116 97 127 134 107 103 103 76 104 103 108 186 123 126 218 186 193 206 225 275 281 269 278 287 293 297 310 307 304 310 313 326 335 327 340 351 348 346 354 17
105 121 129 135 136 143 181 55 104 110 68 20 76 16 65 92 97 69 74 58 81 101 113 156 126 109 164 173 205 233 222 260 235 253 265 284 295 302 297 291 306 307 311 306 326 331 345 348 9 0 356 359 17 27
123 129 141 160 162 99 94 27 51 82 35 20 28 21 55 58 20 75 70 51 82 108 98 53 93 155 202 216 190 210 200 208 258 291 274 280 284 303 308 307 306 308 310 303 334 2 358 22 23 9 8 23 42 36
114 119 137 174 197 61 75 15 38 64 47 330 26 21 58 56 28 35 54 38 55 58 54 96 182 210 189 221 190 173 183 214 284 324 307 309 326 320 312 310 302 305 302 320 80 35 13 46 36 32 32 37 56 56
55 353 26 70 43 53 80 47 57 77 70 66 346 45 52 20 38 32 32 358 60 105 96 193 183 309 43 69 75 101 235 4 263 217 259 309 314 317 300 305 304 296 317 102 107 76 56 66 56 55 55 55 66 70
8 38 55 29 59 39 53 12 100 54 62 45 37 35 50 46 32 8 318 54 85 235 178 160 201 322 19 352 313 277 260 273 265 267 267 267 300 313 323 311 305 313 2 138 224 90 104 102 41 43 54 63 73 87
33 43 43 36 64 54 352 14 61 28 75 65 46 61 31 51 332 33 59 232 254 248 207 186 173 175 188 261 287 287 270 264 292 314 317 310 293 290 308 319 322 334 80 66 107 124 139 150 149 99 12 68 66 54
26 52 51 50 57 76 52 32 36 83 87 76 85 100 141 145 103 78 216 231 239 210 40 26 47 27 335 288 302 290 301 267 308 306 306 337 310 282 316 310 333 43 65 68 78 92 107 125 129 113 95 96 69 71
62 24 74 64 18 90 92 115 112 154 121 141 162 138 140 125 154 183 200 156 78 73 54 50 50 39 326 314 311 329 1 24 353 324 310 328 292 312 297 329 9 53 97 90 80 85 79 92 91 101 107 113 102 96
72 36 58 108 115 105 149 136 160 144 146 147 152 118 150 155 175 162 73 24 85 56 24 23 358 343 17 45 1 345 343 338 350 1 301 286 303 290 298 339 18 30 88 95 117 111 94 91 103 98 92 101 111 107
76 48 355 333 117 119 83 78 77 59 53 50 329 45 51 149 174 122 94 35 72 40 309 314 322 298 281 309 306 294 319 339 299 272 280 291 277 335 342 314 44 3 100 113 109 123 126 126 103 85 83 69 85 123
133 117 110 358 51 29 86 72 64 87 107 347 28 42 89 177 203 181 196 47 331 303 295 276 250 257 262 257 268 298 307 317 308 297 270 328 15 31 18 27 43 48 62 83 106 100 103 119 110 104 95 95 81 65
76 152 108 104 94 55 54 80 112 147 175 145 98 131 189 192 134 93 355 312 301 282 275 282 282 259 260 267 265 258 261 289 332 351 4 1 357 338 5 37 51 64 65 71 47 88 90 92 94 96 100 95 90 89
172 161 105 65 67 71 37 8 87 124 85 66 83 68 41 27 234 184 225 263 290 283 276 270 272 271 271 235 274 306 247 219 221 214 276 327 323 308 310 96 80 73 83 86 93 106 99 103 100 73 69 74 80 96
157 107 81 65 77 86 166 101 48 117 147 150 143 120 142 155 199 208 244 248 269 285 286 283 294 277 283 229 189 242 293 270 245 249 247 266 286 301 166 114 107 99 91 91 96 111 121 121 117 101 83 78 72 85
71 108 124 114 114 143 136 162 163 83 53 50 15 76 143 201 269 244 244 244 262 279 267 270 265 268 286 304 279 254 232 277 278 243 259 266 356 354 120 122 107 102 100 98 99 113 121 119 122 127 105 89 74 50
97 90 86 99 114 152 152 127 117 120 109 123 153 119 39 360 317 287 284 223 252 273 278 266 259 254 252 252 253 275 288 279 302 42 128 125 94 45 104 117 110 108 109 111 109 121 118 120 120 127 128 112 63 87